Temp
11 11 11 11 11 11 11 11 10 11 12 13 12 11 12 14 15 16 17 18 19 20 20 20 20 21 21 22 22 23 23 22 22 21 22 23 23 23 23 24 24 24 25 25 25 25 25 25 25 26 26 26 25 25 25 25 25 26 27 26 24 24 24 25 26 26 26 25 25 25 25 26 25 25 24 24 25 25 24 23 21 19 18 17 16 16 17 17
11 11 11 11 11 11 10 10 10 11 12 14 14 12 12 14 15 16 18 19 19 20 20 20 20 21 21 22 22 22 22 22 21 21 22 23 23 23 24 24 24 24 25 25 25 24 24 24 25 25 26 25 25 25 25 25 26 27 27 25 24 25 24 24 25 26 26 26 25 25 25 26 26 25 24 25 25 24 24 23 21 19 17 16 16 16 16 16
11 11 11 11 11 10 10 10 10 11 12 14 14 14 14 15 15 17 18 19 19 20 20 20 20 21 21 22 22 22 22 22 21 22 23 23 23 24 24 24 24 24 25 25 24 24 24 25 25 25 26 26 26 25 25 26 26 26 26 26 25 25 25 24 24 25 26 26 25 25 25 26 25 25 25 25 25 24 24 23 22 22 18 16 15 15 16 16
11 11 11 11 10 10 10 10 10 10 12 14 15 15 15 15 16 17 18 19 19 19 19 20 20 21 21 22 22 22 22 22 22 22 23 23 23 24 23 24 24 24 25 24 24 24 25 24 24 26 26 26 26 25 26 26 26 26 26 26 25 25 25 24 24 24 25 25 26 25 25 25 25 24 25 25 25 24 24 24 24 24 20 16 15 15 15 15
11 11 11 11 10 10 10 10 10 10 11 13 15 15 15 16 17 18 18 19 19 19 19 20 20 21 21 21 22 22 22 22 22 22 22 23 23 24 23 24 24 24 24 24 25 25 25 24 24 26 26 26 26 25 26 26 26 26 25 25 24 25 25 24 24 24 24 25 26 26 25 25 24 24 25 25 25 25 25 25 25 25 21 17 16 15 15 15
11 11 11 11 10 10 10 10 10 10 10 12 14 15 16 16 17 18 18 18 19 19 19 20 20 21 21 21 22 21 22 22 22 21 22 23 23 23 23 24 24 24 24 24 24 25 25 25 25 26 26 26 25 26 26 25 25 26 24 24 24 25 25 24 23 24 25 26 26 25 25 24 25 25 25 25 25 25 25 25 25 24 20 17 16 15 15 15
11 11 11 11 11 10 10 10 10 10 10 11 14 15 16 16 17 18 18 18 19 19 19 20 20 20 21 21 21 21 21 22 22 22 22 23 23 23 23 23 24 24 24 24 24 24 25 25 25 26 26 26 25 25 26 25 26 26 24 24 23 23 24 23 23 23 24 25 25 25 25 25 25 25 24 25 25 25 23 22 22 21 19 18 16 16 15 15
11 11 11 11 11 10 10 10 10 10 10 11 13 15 15 16 17 18 18 18 19 19 20 20 20 20 20 21 21 21 21 22 22 22 22 23 23 23 23 23 23 24 24 24 24 24 25 25 25 26 26 26 25 26 25 25 26 25 24 23 23 23 23 23 23 24 24 24 24 24 25 25 25 24 24 25 25 24 22 21 20 19 18 18 17 17 16 15
11 11 11 11 11 11 10 10 9 9 10 10 12 14 15 16 17 18 18 18 19 19 19 20 20 20 20 20 20 21 21 22 22 22 22 23 23 23 23 23 23 23 24 24 24 24 25 25 26 26 26 26 26 25 25 25 25 25 24 23 23 22 22 23 23 24 24 24 24 25 25 24 23 24 25 25 26 24 22 22 21 20 20 19 18 17 16 15
12 11 11 11 11 11 11 11 10 10 9 10 12 14 15 16 17 18 18 18 19 19 19 19 19 19 20 20 20 21 21 21 21 22 22 22 23 23 23 23 23 23 23 24 25 24 24 25 25 26 26 26 25 24 24 25 25 24 23 23 23 22 22 23 23 23 24 24 24 25 25 24 23 23 25 26 25 23 23 23 22 21 21 20 19 18 17 16
12 11 11 11 11 11 11 11 11 10 10 10 11 13 14 16 17 18 18 18 19 19 19 19 19 19 20 20 21 21 21 21 21 22 22 22 23 23 23 23 23 23 23 24 24 24 24 24 24 25 26 26 25 24 24 24 24 23 23 23 22 23 23 23 23 23 24 24 23 24 24 24 23 23 25 25 23 22 24 23 22 23 22 21 20 19 17 17
11 11 11 11 11 11 11 11 11 11 10 10 11 12 14 16 17 17 18 18 18 19 19 19 19 19 19 20 21 21 21 21 21 22 22 23 23 23 23 23 24 24 24 23 24 24 24 24 25 26 25 25 24 24 24 24 23 23 24 24 22 23 23 23 24 23 23 23 23 23 24 24 23 24 25 25 23 23 23 23 23 23 23 22 21 20 18 17
11 11 11 11 11 11 11 11 11 11 10 11 12 12 14 15 16 17 18 18 18 18 18 18 19 19 20 21 21 20 21 21 21 22 22 23 23 23 23 24 24 24 25 24 24 25 25 25 26 26 24 24 24 23 24 24 24 24 24 24 22 23 23 23 23 23 23 23 22 23 23 24 25 24 25 23 23 24 23 23 23 23 23 22 22 21 20 18
11 11 11 11 11 11 10 10 10 11 11 11 12 12 14 15 16 17 17 17 18 18 18 18 19 19 20 21 20 20 20 21 21 22 22 23 23 23 23 24 24 24 25 25 25 25 25 25 25 24 23 24 23 23 24 24 24 24 24 23 23 22 22 23 23 23 23 22 22 23 22 24 26 25 23 22 23 24 24 24 23 23 23 22 22 22 22 19
11 11 11 11 10 10 10 10 10 10 10 11 12 13 14 15 16 16 17 17 17 18 18 18 19 19 20 21 20 20 20 20 21 22 22 23 23 23 23 24 24 24 25 25 25 25 25 25 25 24 23 23 23 23 24 24 24 24 23 22 22 22 22 23 23 23 24 22 22 23 22 24 26 24 22 21 23 24 24 24 23 23 23 22 22 21 22 21
11 11 11 11 10 10 10 10 10 10 10 11 11 13 14 15 16 16 16 17 17 18 18 18 19 19 21 21 20 20 20 20 21 22 22 22 23 23 23 23 24 24 24 24 25 25 25 25 24 23 23 23 23 24 23 22 23 24 23 21 22 22 21 22 22 22 23 23 22 22 22 24 25 24 22 22 22 23 24 24 24 24 23 22 22 21 21 21
11 11 11 10 10 10 10 10 10 9 10 11 12 13 14 15 16 16 16 17 17 18 18 18 18 20 20 20 19 20 20 20 21 22 22 22 23 23 23 23 23 23 24 24 25 25 24 24 22 22 24 24 23 23 22 21 21 22 22 22 22 22 21 21 22 22 22 22 22 22 22 24 25 23 23 23 22 23 24 24 24 24 24 23 22 21 21 20
11 10 10 10 10 10 9 9 9 9 10 11 12 13 14 15 15 15 16 16 17 18 18 18 18 20 20 19 20 20 20 20 21 21 22 22 22 23 23 23 22 22 23 24 24 24 23 23 23 23 23 23 23 23 22 21 21 22 21 21 22 22 22 22 22 22 22 22 22 22 21 23 24 23 22 23 22 23 24 24 24 24 24 23 22 21 21 20
10 10 10 10 10 10 9 9 9 9 10 11 12 13 13 14 15 16 15 16 17 19 19 19 19 19 20 20 20 20 20 20 21 21 21 22 22 23 23 23 22 23 23 23 23 24 23 23 23 23 23 23 24 24 23 23 23 23 23 22 22 22 21 22 22 20 21 22 22 22 22 23 23 23 22 23 22 22 23 23 23 23 23 23 23 21 20 20
10 10 10 10 10 9 9 9 8 8 9 11 11 12 14 16 16 17 16 15 17 19 19 19 19 20 20 19 19 19 20 20 20 21 21 22 22 23 23 23 23 23 23 23 23 22 22 23 22 22 23 24 24 24 24 24 24 24 23 23 23 22 21 21 21 21 21 22 23 22 22 22 22 23 23 23 22 22 22 22 22 22 22 22 23 22 21 21
10 10 10 10 10 9 9 8 8 8 9 10 10 13 16 18 18 17 16 17 17 18 19 19 19 20 19 18 18 19 20 20 20 20 21 21 22 22 23 22 23 22 22 23 23 22 22 22 23 23 24 24 24 24 24 25 25 24 24 23 22 22 21 21 21 21 20 21 22 22 21 22 22 22 22 22 23 23 22 22 23 23 22 22 22 22 22 21
10 10 9 10 9 9 9 8 8 8 8 9 9 11 15 17 17 17 18 19 18 18 19 19 19 19 18 18 18 19 20 20 19 20 20 21 21 22 22 22 22 22 21 22 22 22 22 22 23 23 23 23 24 24 25 24 24 24 23 23 22 21 21 20 20 21 20 21 22 21 21 22 22 21 21 21 22 24 23 23 24 23 23 22 22 22 22 22
10 10 9 9 9 9 8 8 8 8 8 9 9 10 13 16 17 17 19 20 19 19 19 19 19 19 18 19 19 19 20 20 20 20 20 21 21 22 22 22 22 22 21 22 22 21 21 22 23 22 23 24 24 24 24 24 23 23 23 22 21 21 21 21 21 21 20 20 21 21 20 21 21 20 21 21 20 21 22 23 23 23 23 23 22 23 23 23
10 9 9 9 9 9 8 8 8 8 8 8 9 12 14 16 16 17 19 20 20 19 19 19 19 19 19 19 19 20 20 21 20 20 20 21 21 21 22 22 22 21 21 22 22 22 22 21 21 22 23 24 23 23 24 24 22 22 22 22 22 21 21 21 21 21 21 20 20 20 21 21 22 22 24 24 21 21 21 22 23 23 22 22 23 23 22 22
9 9 9 9 9 9 8 8 8 8 8 8 10 14 15 15 16 17 19 20 19 19 18 19 19 19 20 19 19 20 21 21 20 19 20 20 21 21 21 22 22 21 21 22 22 22 22 20 20 22 23 23 23 23 23 23 22 21 21 21 22 22 22 21 22 22 21 20 20 20 21 21 22 24 25 25 24 24 24 24 25 24 22 22 23 23 23 22
9 9 9 9 9 9 8 8 8 8 8 9 12 14 14 15 16 17 19 19 18 18 17 19 19 20 21 19 19 20 21 20 18 18 20 20 21 21 21 22 22 21 21 22 21 21 20 20 20 22 23 22 23 22 22 22 22 21 20 19 21 22 22 21 22 21 21 20 19 20 20 20 21 23 24 25 24 24 24 24 26 25 22 22 24 24 24 22
9 9 9 9 9 9 8 9 9 8 9 11 13 14 14 15 16 17 19 17 17 18 17 17 19 20 20 19 19 21 21 19 18 18 19 20 20 21 21 21 22 22 21 22 21 19 19 20 20 21 22 22 22 22 21 22 22 21 19 19 21 22 21 21 21 21 20 20 19 19 20 20 19 21 23 23 23 23 23 23 25 24 22 23 24 23 23 23
9 9 9 9 8 9 10 10 9 9 11 12 13 14 14 15 16 18 18 15 17 19 18 17 18 20 20 19 20 20 19 19 20 19 18 19 20 21 21 21 22 22 21 21 21 18 18 20 21 21 21 21 21 20 19 21 22 20 18 19 21 22 21 20 21 20 19 19 20 19 19 19 19 21 23 22 22 23 24 25 25 24 24 25 24 22 22 22
9 9 9 9 9 9 10 10 9 10 11 12 13 14 15 15 17 19 17 16 18 19 18 18 18 19 18 18 19 19 18 19 19 18 17 19 20 20 21 21 22 21 19 20 21 18 18 18 19 20 22 21 19 17 16 20 22 19 18 19 20 20 20 20 20 20 19 19 20 20 20 20 20 21 22 22 22 24 26 25 24 24 24 24 22 21 21 21
9 9 9 9 9 9 9 9 10 11 12 12 13 14 15 16 18 18 15 16 19 18 17 17 17 18 18 18 18 18 18 18 17 17 18 20 19 20 20 20 21 21 19 19 19 17 17 16 16 18 20 18 17 16 16 18 19 19 19 20 20 19 19 19 19 19 20 20 19 19 19 20 20 20 21 22 23 24 25 25 24 24 23 21 21 21 20 20
9 9 9 9 9 9 9 9 10 11 12 12 13 14 16 17 17 16 14 17 20 17 15 16 17 17 18 18 18 18 18 17 17 18 18 19 19 20 20 19 20 20 19 19 18 16 17 17 17 17 16 16 17 18 17 17 17 19 21 21 20 20 19 19 18 19 20 20 19 18 18 19 20 20 21 23 24 24 24 25 26 26 24 22 22 20 19 18
9 9 9 9 9 9 9 10 11 12 12 12 13 15 16 16 15 15 16 18 19 17 16 16 16 17 17 18 18 17 17 17 17 18 18 18 18 19 19 20 20 19 18 19 18 17 17 17 17 16 16 17 19 19 18 18 18 19 20 20 20 20 19 19 19 19 19 19 18 17 18 19 19 21 22 24 25 25 24 25 26 26 24 23 22 20 18 18
10 9 9 9 9 9 10 10 11 12 12 12 13 15 16 15 14 16 17 18 19 17 17 17 17 17 17 18 17 17 18 17 17 18 18 18 18 18 19 19 20 20 19 18 17 17 18 17 16 17 17 17 19 20 19 19 18 19 20 20 20 19 19 19 19 18 19 19 17 16 18 19 19 21 23 24 25 25 24 24 25 25 25 25 23 19 18 17
10 10 9 9 9 9 10 10 11 11 12 13 14 15 15 14 15 17 17 18 18 17 17 17 16 17 17 17 17 17 18 17 17 18 18 17 17 17 18 18 18 20 19 18 17 17 18 18 17 18 18 17 18 19 19 19 18 18 19 19 20 20 20 20 19 19 19 19 17 17 18 20 20 21 22 22 23 23 24 24 24 24 23 23 20 18 17 16
10 10 10 9 9 10 10 10 11 11 11 12 14 15 14 15 16 17 16 17 18 17 17 17 16 16 17 17 17 17 18 17 16 17 17 17 17 17 18 18 18 19 19 18 17 17 18 19 17 16 16 17 18 17 17 19 19 18 18 19 19 20 20 19 18 18 18 18 18 17 18 19 20 21 21 22 23 23 24 24 23 23 22 21 21 20 18 16
9 9 9 9 9 10 10 10 11 11 11 13 14 14 14 16 17 17 17 18 18 17 16 16 16 16 16 17 17 17 18 17 16 17 16 16 17 17 17 18 18 19 19 19 18 17 18 18 15 15 16 16 16 16 16 18 19 18 18 19 19 18 20 19 17 16 17 18 19 18 19 19 19 21 22 22 23 22 23 24 24 24 23 22 24 22 18 16
9 9 9 9 9 10 10 10 11 10 11 13 14 14 15 16 18 18 18 19 18 17 17 16 16 16 16 16 16 17 18 17 16 17 17 16 17 17 17 18 19 19 20 21 20 18 19 17 14 15 16 15 14 15 16 16 17 18 18 19 18 18 19 20 19 18 17 18 19 18 19 20 20 21 22 22 22 22 23 24 25 25 24 24 25 23 19 18
10 10 10 10 10 10 10 10 11 10 11 12 13 15 16 16 18 19 19 18 18 17 17 16 16 17 16 16 16 16 17 17 16 17 17 17 18 18 18 18 19 19 20 21 21 20 19 19 15 13 14 15 14 16 17 16 16 17 17 18 18 19 19 19 19 19 18 18 19 18 19 19 20 21 22 23 23 23 24 24 25 25 24 24 25 24 21 20
9 10 10 10 10 10 10 10 10 10 11 12 12 14 16 16 18 19 19 18 18 18 17 17 17 17 17 16 16 16 17 17 16 16 17 17 18 18 19 19 19 19 20 21 21 20 20 20 17 13 13 14 15 16 17 16 16 16 17 17 17 18 19 19 18 19 19 18 18 19 19 19 20 21 22 23 24 24 25 25 24 24 24 24 24 24 23 21
9 10 10 10 10 10 10 10 10 10 11 12 12 14 16 16 17 19 19 19 18 18 18 18 18 17 17 17 16 16 17 17 16 16 17 17 18 18 19 20 20 19 19 20 21 20 20 20 18 14 12 14 16 16 16 16 17 17 17 17 17 17 17 18 18 17 19 19 18 18 19 19 20 21 23 24 24 25 24 23 24 25 23 22 22 24 24 22
9 9 10 10 10 10 10 10 10 10 11 12 13 14 15 16 17 18 19 18 18 19 19 18 18 18 17 16 16 16 16 16 16 16 17 17 18 18 19 20 20 19 19 19 20 20 19 19 17 14 13 15 16 15 14 16 17 17 17 18 17 17 17 18 18 17 18 19 18 18 19 19 21 22 23 24 25 25 24 23 25 25 23 22 23 24 23 22
9 8 9 9 10 10 10 10 10 10 11 12 13 14 15 15 16 17 18 18 18 19 19 19 18 18 18 17 17 17 16 16 15 16 17 17 17 19 19 19 20 19 19 19 19 19 18 17 16 15 14 15 15 13 12 14 16 17 17 17 17 17 18 18 18 17 17 18 18 18 18 19 21 23 24 24 24 24 24 24 25 25 24 24 24 23 22 21
9 8 9 9 10 10 10 10 10 10 11 12 13 14 14 15 15 16 16 17 18 19 19 19 18 18 18 18 17 16 17 16 16 16 17 17 17 19 19 19 19 19 19 19 18 18 18 17 17 15 14 14 14 13 13 14 15 16 16 16 16 17 18 19 18 18 18 18 18 17 17 19 21 22 23 23 23 24 24 23 24 25 24 23 22 22 21 20
9 9 9 9 9 10 11 10 10 10 10 12 13 13 13 14 15 15 16 16 17 18 19 19 19 19 19 18 17 17 17 17 16 16 17 17 17 18 19 19 19 19 19 19 19 19 19 18 17 16 15 15 15 15 15 14 15 16 16 16 17 17 18 18 17 17 17 18 18 17 17 19 20 21 22 22 23 24 24 23 24 24 24 23 22 22 21 20
8 9 9 10 9 9 10 10 10 10 11 11 12 12 13 13 13 13 14 15 15 16 18 18 19 19 19 18 17 17 17 18 18 16 17 17 17 18 18 18 19 19 20 20 19 20 19 18 17 17 16 16 15 16 16 15 14 15 16 16 16 17 17 17 17 16 17 17 17 17 18 19 20 20 21 21 22 22 23 24 23 22 23 23 22 21 21 20
8 8 8 9 9 9 9 9 9 10 11 11 11 12 12 13 13 12 13 14 14 14 16 17 18 19 18 18 17 16 16 18 18 17 17 17 17 17 17 17 18 19 19 19 19 19 19 17 17 18 17 17 17 17 16 15 15 16 16 16 15 16 16 17 17 16 16 16 16 17 18 18 19 20 20 20 20 21 22 22 22 22 22 22 21 21 21 20
8 8 8 8 8 9 9 8 8 9 10 11 11 12 12 12 13 13 13 14 13 13 15 16 17 18 18 17 17 16 16 17 17 17 17 16 16 16 15 16 18 18 19 19 18 18 19 17 17 18 18 18 19 18 16 16 17 17 16 16 15 15 15 16 16 17 17 16 16 17 17 17 18 19 19 19 19 19 20 21 21 22 22 22 22 21 20 19
7 8 8 9 9 9 9 8 7 7 9 10 12 12 12 12 13 13 13 13 12 13 14 15 16 17 18 18 17 17 16 16 16 17 17 16 16 16 16 16 16 16 17 18 17 18 19 18 17 17 17 17 18 17 16 17 18 17 17 16 15 15 15 15 16 17 17 16 17 18 18 17 18 19 19 20 19 20 20 20 20 20 20 20 20 20 21 21
7 7 8 9 9 9 9 9 7 7 8 9 10 11 12 12 12 13 13 12 12 12 13 15 16 16 17 17 18 17 16 16 16 16 16 15 16 16 16 16 16 15 16 17 16 17 18 19 17 16 17 17 17 16 16 17 18 17 16 16 15 15 15 15 16 17 16 16 17 18 17 17 18 19 19 20 20 20 20 19 19 20 20 20 20 21 21 21
7 7 7 8 8 9 9 9 7 7 8 8 9 10 11 11 12 12 12 12 13 12 12 14 15 15 15 16 17 17 16 17 18 17 16 16 16 16 16 17 16 15 16 17 16 15 17 18 17 16 16 17 17 16 15 16 17 16 16 16 15 15 14 14 15 16 16 16 16 17 16 16 18 19 19 20 19 19 20 19 19 20 20 20 20 20 20 20
6 6 7 7 8 8 9 8 8 7 7 8 8 9 10 10 11 12 12 12 13 13 12 13 14 14 14 14 15 15 14 16 17 16 16 16 16 16 16 16 16 16 15 16 16 16 16 16 16 16 16 16 18 17 14 14 16 16 16 16 15 15 14 14 15 15 16 16 16 15 15 16 18 19 20 20 19 19 20 19 19 20 20 20 20 20 20 20
6 6 6 6 7 8 8 8 7 8 8 8 8 9 10 10 11 12 11 12 13 13 13 13 14 14 14 14 14 14 12 13 13 13 13 13 13 14 14 15 15 16 16 16 15 15 16 16 17 16 16 16 17 16 15 15 15 15 16 17 16 15 15 15 15 15 16 16 16 16 16 18 19 19 19 19 19 19 19 19 19 20 20 20 20 20 20 19
Height
775 776 778 778 779 780 781 782 783 782 783 784 785 786 786 787 787 788 788 789 789 790 790 791 791 792 792 792 793 793 794 794 795 796 796 795 795 795 795 795 795 795 796 796 797 797 798 799 798 798 800 801 802 803 803 803 803 807 815 823 828 830 827 823 821 819 820 825 825 823 823 825 828 826 825 826 828 830 832 833 834 835 835 835 836 836 838 841
774 775 777 778 779 780 781 781 782 781 782 783 784 785 785 785 786 786 787 787 788 789 789 790 791 791 791 792 792 793 794 794 795 796 795 794 794 795 794 794 795 795 795 796 796 797 799 799 798 798 801 804 804 804 805 804 804 811 818 824 828 828 825 821 818 816 816 821 823 822 823 823 825 825 825 829 832 832 834 836 836 838 840 840 839 839 840 841
773 775 776 777 778 779 780 780 781 781 780 782 782 783 784 784 784 785 785 786 787 788 788 789 790 790 791 791 792 793 794 795 797 795 793 793 794 794 794 794 794 794 795 795 796 797 798 798 798 799 803 806 805 805 808 806 807 811 817 825 826 823 821 820 818 816 813 816 821 823 823 823 823 824 825 829 832 833 833 835 836 838 841 841 840 840 841 841
772 773 775 776 778 778 779 779 780 780 779 780 781 782 783 782 783 783 784 785 786 787 788 789 790 790 791 790 792 793 793 797 797 792 791 792 792 793 793 794 793 794 794 795 795 796 796 797 798 799 804 808 807 806 809 808 809 811 815 823 822 819 820 820 818 817 814 814 819 822 824 825 824 823 825 828 833 835 831 829 829 830 834 839 840 840 840 841
771 772 774 775 777 778 778 779 779 779 779 779 780 781 782 782 782 782 783 784 785 786 787 788 789 789 790 790 792 792 794 801 797 789 791 791 791 793 793 793 793 793 793 794 795 795 795 796 797 800 805 809 809 809 810 807 807 813 818 820 819 817 820 820 818 818 815 815 818 821 824 824 824 824 825 827 832 832 826 823 823 822 827 832 835 837 839 840
770 771 773 774 776 777 778 778 779 779 779 779 780 780 781 781 781 782 783 784 785 786 787 788 788 789 790 791 792 792 796 801 793 788 791 790 791 792 792 793 792 793 793 794 794 794 796 796 799 804 806 809 811 811 810 807 807 815 820 819 818 816 818 819 818 817 815 816 820 821 822 822 825 826 825 825 827 824 820 819 819 819 823 826 830 834 836 838
769 771 772 774 775 776 777 778 778 778 779 778 779 779 780 780 781 782 783 784 784 785 786 787 788 789 790 791 792 793 796 795 789 789 791 790 791 791 792 793 792 793 792 793 794 795 796 798 802 804 806 810 811 810 809 808 807 814 821 819 819 818 818 819 818 818 816 817 820 820 821 823 825 826 825 824 822 820 819 818 817 819 822 825 829 832 833 834
768 770 771 773 774 775 776 777 778 778 778 778 779 779 780 780 781 782 782 784 784 785 786 786 788 788 790 791 792 795 796 791 788 789 790 790 791 791 792 792 791 792 792 793 794 794 797 800 802 802 808 810 808 809 808 809 811 814 820 820 819 820 820 819 818 818 818 818 820 820 822 824 824 824 825 823 820 819 820 819 818 820 823 826 828 829 830 831
767 769 770 772 773 774 775 776 777 778 778 778 778 779 779 780 781 782 782 783 783 785 786 786 788 788 790 791 792 796 794 788 787 789 789 790 791 791 792 791 791 792 792 793 792 794 797 799 800 800 805 807 805 808 808 811 815 814 817 819 820 821 820 819 819 818 819 819 820 821 824 825 823 824 823 819 817 819 819 819 819 821 823 825 826 827 828 829
766 768 769 771 772 773 774 775 777 777 778 778 778 778 779 780 780 781 782 783 784 784 785 787 788 788 790 790 794 797 790 786 788 788 789 790 791 791 791 791 791 791 792 792 792 794 795 796 797 795 799 803 805 809 809 811 814 813 816 819 820 822 821 820 820 819 819 820 821 823 826 825 823 826 824 816 814 817 818 820 820 820 822 823 824 824 825 826
765 767 768 770 771 773 773 775 776 777 778 777 777 778 779 779 780 781 782 783 783 784 786 787 787 789 790 790 794 795 788 786 788 787 789 790 790 790 790 790 790 791 791 791 792 792 793 794 793 793 799 803 806 810 810 809 811 813 816 820 823 822 821 821 821 821 820 822 822 823 826 825 825 826 821 814 813 816 817 819 820 820 821 821 822 822 823 823
764 766 767 769 770 771 772 774 775 776 777 776 777 778 778 779 780 781 782 783 783 784 786 786 787 788 789 791 792 790 786 787 788 788 789 789 790 790 789 790 790 790 790 790 791 791 792 792 791 796 801 802 808 813 811 808 811 814 814 821 826 823 823 822 821 822 822 824 823 823 828 827 827 823 814 813 814 814 817 819 820 819 819 820 820 821 821 820
763 765 766 768 769 771 772 773 774 776 776 776 777 777 778 778 779 780 781 782 783 784 785 786 787 788 790 791 789 786 786 787 787 788 789 789 790 789 789 789 789 789 789 789 791 791 792 792 792 796 799 802 810 811 808 808 811 815 816 821 829 829 827 823 822 822 822 825 822 825 834 828 822 819 812 814 814 815 818 818 818 819 818 819 819 819 819 818
762 764 765 767 768 770 771 772 774 775 775 776 777 777 778 778 779 780 781 782 783 784 785 786 787 788 790 790 786 786 786 786 787 788 788 789 789 789 789 789 789 789 789 789 790 791 792 792 792 796 799 803 807 807 809 813 814 818 820 823 830 833 831 824 823 824 824 826 821 826 836 827 817 816 813 814 814 815 817 817 818 818 817 817 817 817 816 816
761 763 765 766 768 769 770 771 773 774 775 776 776 777 777 778 779 779 780 782 782 784 784 785 786 787 790 789 786 786 786 786 787 787 788 788 788 788 789 789 789 789 789 790 790 791 792 792 794 800 804 804 805 811 817 819 817 819 825 831 833 832 833 828 823 824 825 826 823 827 835 828 818 816 815 815 814 814 816 816 817 816 816 816 815 815 814 814
760 762 764 765 767 768 769 771 772 773 774 775 776 776 777 778 778 779 781 781 782 783 784 786 786 787 790 789 785 786 786 786 786 787 788 788 788 788 789 789 789 789 790 790 790 792 791 793 798 803 805 807 810 815 821 827 826 823 827 833 833 832 836 833 826 824 824 826 826 829 833 828 820 817 816 816 815 815 815 815 815 814 813 813 813 812 812 812
759 761 763 764 766 767 768 770 771 772 774 775 775 776 777 778 779 779 780 781 782 783 783 785 785 787 789 787 787 786 785 785 786 787 787 788 788 788 789 789 790 790 790 790 791 792 793 797 803 805 806 810 813 816 825 836 836 830 830 832 830 831 835 835 830 826 825 828 829 830 833 826 819 817 817 815 815 816 816 814 812 811 810 810 811 810 810 811
758 760 762 763 765 766 767 769 770 772 773 774 775 776 777 778 780 780 781 781 782 783 786 785 786 792 792 787 786 785 783 784 785 786 787 788 788 789 789 789 790 791 792 794 794 795 798 801 805 809 811 813 814 817 826 833 831 828 831 831 828 829 832 830 830 828 826 830 831 833 835 826 818 818 817 815 815 816 813 811 809 808 808 807 807 808 807 808
757 759 761 762 764 765 766 768 769 770 772 774 775 776 778 779 780 780 781 781 782 784 787 784 785 790 789 782 782 782 782 784 785 786 787 788 788 789 789 789 791 792 797 801 800 799 801 806 810 815 817 816 815 816 819 820 819 820 824 825 825 828 834 831 830 831 828 831 832 831 832 826 819 817 816 813 813 814 812 809 809 807 806 805 804 804 804 805
756 758 759 761 763 764 765 767 768 770 771 773 774 775 777 778 781 783 782 781 780 780 781 779 780 782 781 779 780 782 783 785 786 786 787 787 788 789 789 791 793 796 800 803 804 803 803 811 816 816 815 812 811 812 812 812 813 816 820 823 824 828 834 834 831 830 829 831 830 828 830 827 822 817 813 811 811 812 812 809 808 805 803 802 802 802 801 801
755 757 758 760 762 763 765 766 767 769 770 772 773 773 772 773 777 781 782 782 778 776 778 777 777 778 778 779 780 780 782 786 787 786 787 787 787 791 792 794 798 803 803 803 805 804 806 815 816 811 809 807 808 809 809 810 811 814 818 821 825 828 832 834 832 830 829 831 829 829 830 825 820 817 812 810 809 807 806 806 804 801 800 800 800 800 799 797
754 756 758 759 761 763 764 765 767 769 770 771 772 770 768 768 770 772 774 779 778 775 777 778 777 779 778 779 780 779 781 787 789 788 787 787 788 792 795 796 802 806 805 804 807 811 815 817 812 808 808 807 808 808 808 811 813 816 821 822 826 830 833 835 833 830 830 831 828 831 832 822 816 816 811 808 806 800 798 799 798 796 798 798 798 797 797 796
753 754 757 759 760 762 763 765 767 768 770 770 770 768 767 767 769 768 770 776 778 776 777 778 778 780 780 780 780 779 782 785 789 789 786 787 790 792 794 798 802 805 806 806 810 817 821 815 808 808 807 805 810 810 809 813 816 819 823 825 828 832 833 834 833 831 831 832 831 833 834 823 814 813 807 803 803 798 795 796 794 793 793 792 793 793 792 793
751 753 756 757 760 762 763 765 767 768 769 769 768 765 765 767 768 769 769 773 777 776 775 777 777 778 779 779 777 780 782 782 785 786 785 787 790 792 794 797 802 807 808 806 808 814 816 812 808 808 806 805 811 813 812 815 821 823 824 825 827 830 831 832 832 830 831 834 834 832 829 819 812 810 802 796 799 798 795 795 791 790 791 789 790 789 789 789
750 753 755 756 759 760 763 765 766 768 769 769 766 763 765 766 767 769 770 776 780 778 777 776 776 776 775 776 777 778 780 782 784 784 783 785 788 792 794 794 800 808 808 806 809 812 813 812 810 808 807 808 811 814 815 816 823 827 827 827 825 826 829 831 831 830 833 837 835 833 833 823 811 808 802 795 797 795 792 792 787 784 788 789 787 786 786 788
750 753 754 756 758 759 763 764 764 767 768 767 763 763 766 766 768 769 771 784 787 780 781 778 776 775 772 775 777 777 783 786 784 783 783 786 786 788 795 795 797 804 805 805 809 812 813 812 810 809 809 812 813 817 817 818 825 829 830 831 827 825 829 830 831 833 837 841 837 837 842 837 820 809 803 798 797 795 794 792 785 782 786 787 784 783 784 787
749 751 753 755 756 758 761 760 762 766 767 765 761 764 766 765 769 767 776 801 795 775 778 780 775 772 770 773 773 777 788 787 784 785 784 786 786 786 794 798 798 800 800 803 812 815 814 812 812 811 812 816 816 818 820 818 824 829 830 831 827 824 829 832 834 836 839 841 840 839 843 845 835 815 803 801 801 799 797 793 785 782 785 784 782 782 784 785
749 750 752 754 755 757 758 758 760 763 763 763 761 764 765 765 769 767 784 810 792 767 772 776 772 769 769 772 772 777 783 780 784 789 784 785 787 786 793 797 796 799 799 803 815 819 815 812 813 812 814 819 819 821 824 819 822 829 830 830 826 825 830 833 835 840 844 846 844 842 843 846 838 814 800 803 803 798 792 787 783 782 782 781 781 783 784 784
748 749 751 753 755 757 757 758 759 760 761 761 761 764 764 766 768 770 791 802 777 762 768 770 771 771 771 774 776 778 780 780 785 788 785 786 787 787 792 794 793 800 803 803 811 818 817 816 815 813 813 817 823 828 828 820 821 828 830 829 828 830 833 835 839 840 844 848 844 841 840 840 831 811 802 805 801 794 787 784 784 783 782 781 782 784 784 784
746 748 750 753 754 756 758 758 758 760 761 760 761 763 764 767 769 783 804 791 764 765 771 770 772 772 773 778 781 780 781 784 786 787 788 787 787 787 790 792 792 799 807 809 814 820 819 818 818 817 816 819 825 828 828 824 823 826 827 828 832 836 837 840 843 843 845 847 844 842 840 838 831 814 805 802 794 789 786 784 784 781 782 784 784 785 785 785
744 747 749 752 753 755 757 758 758 759 760 760 761 763 765 769 775 792 800 773 758 771 775 773 774 771 772 776 781 782 783 788 787 786 790 790 791 791 791 795 797 804 813 814 819 823 820 818 820 820 821 823 823 824 827 827 826 826 826 829 835 840 843 845 849 849 849 847 844 846 845 844 837 816 802 796 788 785 785 783 781 779 781 783 783 784 786 788
743 746 749 751 753 755 757 758 757 758 760 760 761 762 766 777 784 787 779 761 760 770 769 770 772 770 771 772 778 782 784 789 788 786 790 793 795 794 793 795 797 809 820 818 821 825 822 822 824 823 822 820 819 825 831 830 829 828 829 833 841 848 852 852 854 856 853 847 845 847 845 842 832 810 797 792 783 782 783 780 778 778 780 781 782 784 786 788
742 744 748 751 752 755 756 757 757 758 759 759 762 762 767 783 787 775 766 760 759 759 758 763 766 768 772 774 779 781 782 787 788 787 789 791 796 796 794 793 792 799 811 818 823 826 827 828 826 824 822 819 816 822 831 831 831 830 829 833 840 851 858 857 859 860 853 847 847 850 845 836 822 803 793 787 781 780 781 780 777 777 778 778 780 784 786 788
741 743 747 750 752 754 755 757 757 758 759 759 762 765 771 781 775 763 762 759 753 754 756 759 765 771 771 773 777 777 780 788 787 786 790 793 798 799 795 794 793 792 801 815 822 823 826 827 823 820 819 817 816 818 821 823 828 831 828 830 834 839 845 849 851 849 847 846 849 851 843 826 811 797 790 787 784 782 780 779 779 778 779 780 782 785 786 788
740 743 746 748 751 753 755 757 757 758 759 758 761 768 773 772 761 755 758 753 750 754 757 758 764 773 775 774 775 773 775 786 788 788 791 792 794 796 793 792 792 791 797 811 819 820 821 820 818 819 817 815 817 819 818 819 828 832 830 832 833 829 830 843 850 847 848 850 848 846 835 816 804 794 788 786 782 781 779 777 779 780 781 782 781 782 785 787
739 742 745 747 749 751 754 756 757 758 759 758 763 768 765 755 745 744 745 742 745 752 759 765 767 773 779 777 777 775 772 778 786 789 791 791 790 790 790 787 786 787 790 798 810 816 818 821 822 821 820 820 821 821 820 820 823 828 831 832 831 827 825 838 853 854 853 850 842 838 825 810 805 794 784 785 783 782 782 779 778 778 779 780 776 778 784 786
737 740 743 745 747 750 753 755 757 760 760 758 760 759 753 742 734 735 735 736 743 747 756 768 769 770 777 777 776 775 771 776 784 786 788 791 787 783 785 783 780 782 782 785 797 803 809 821 827 824 822 824 824 823 822 821 821 826 831 828 825 829 827 830 844 851 855 852 840 833 822 812 813 802 784 783 785 783 783 780 777 775 776 777 774 776 782 783
734 738 741 742 745 748 751 755 757 759 761 761 758 749 743 738 730 730 732 734 741 744 751 762 763 763 769 773 775 774 771 775 782 783 785 788 781 773 778 780 777 778 777 779 788 793 797 813 828 831 828 826 824 822 823 824 823 823 825 823 824 831 833 834 841 845 851 854 840 830 825 816 811 802 786 781 782 781 780 778 776 775 774 774 773 774 777 779
733 735 737 738 742 747 750 754 757 760 762 763 758 746 737 734 730 728 729 731 736 742 748 753 754 759 764 766 770 772 771 773 779 781 781 783 778 769 769 771 773 777 777 777 783 788 790 802 821 832 830 828 825 823 825 827 826 824 825 826 826 828 830 832 837 837 841 849 842 831 825 810 795 791 786 782 780 777 776 775 775 774 773 773 774 773 774 776
732 734 733 733 739 745 749 754 758 762 761 754 748 740 732 732 731 728 727 729 732 737 743 745 747 754 761 763 765 768 769 771 776 778 775 776 776 771 766 764 769 775 776 777 781 786 790 795 812 830 834 829 824 821 822 822 822 824 825 828 828 829 833 832 834 835 832 839 843 839 828 804 785 782 779 776 775 771 773 775 773 772 772 774 775 772 773 775
733 736 733 729 735 741 748 756 759 760 756 747 741 738 735 734 732 729 726 728 729 730 733 738 742 747 754 760 764 764 768 771 774 774 772 772 771 769 764 760 764 772 778 783 783 783 790 798 812 829 831 823 818 818 819 816 814 816 817 820 821 825 830 833 837 837 832 832 836 839 831 800 776 775 772 770 772 769 770 773 770 770 772 774 773 772 773 774
736 740 735 729 731 736 743 752 754 753 750 743 739 737 736 735 733 730 728 728 729 728 729 733 737 741 745 752 757 760 764 769 773 772 768 767 766 762 759 757 760 766 772 780 781 778 787 801 812 824 825 820 820 822 824 819 813 814 815 815 817 821 822 826 834 834 833 833 830 837 834 796 768 770 769 768 771 768 769 771 769 770 771 771 772 772 773 773
736 739 734 731 730 730 738 748 753 753 747 739 736 736 736 736 735 733 731 730 730 728 729 731 733 736 739 744 750 755 759 763 768 767 763 764 763 757 756 756 758 763 767 774 779 778 785 796 807 820 825 821 820 821 822 819 816 816 817 816 817 819 815 816 823 826 827 828 826 838 836 797 769 771 769 767 770 768 770 771 769 771 772 772 773 772 773 773
734 735 733 733 731 728 732 739 745 746 741 738 738 738 738 737 735 734 733 732 731 729 728 728 729 731 733 737 744 750 752 757 763 763 760 761 760 755 755 755 756 761 763 766 770 773 781 792 802 816 825 824 824 823 820 820 819 816 815 815 813 813 815 817 821 827 827 819 819 831 825 792 774 775 771 770 772 769 770 771 770 771 771 771 773 772 773 774
733 734 734 732 731 730 730 731 733 735 735 740 743 739 739 739 737 737 736 734 734 732 729 727 726 726 730 734 740 745 746 747 754 760 759 760 758 754 755 756 755 756 756 757 760 764 776 786 791 802 813 817 817 813 808 811 818 816 812 812 812 811 815 816 820 829 826 815 817 821 807 784 774 775 774 774 774 773 771 771 771 771 770 770 772 772 772 772
733 734 736 735 733 731 732 733 734 733 732 739 743 739 739 739 737 738 738 735 736 735 731 729 726 725 729 735 741 747 746 743 747 753 756 757 757 756 756 755 755 755 755 757 759 763 774 781 781 784 789 792 791 790 793 799 807 809 806 808 811 811 811 813 819 823 816 813 817 810 798 790 779 775 779 777 775 777 775 772 772 771 770 770 770 770 770 770
734 732 733 735 735 734 734 737 739 737 734 734 735 733 735 736 735 737 737 736 737 736 733 732 729 726 729 734 739 744 746 745 747 749 752 755 757 758 758 756 756 757 756 758 760 764 773 779 779 778 777 776 776 780 787 790 792 796 799 803 808 809 810 812 812 806 803 813 814 798 798 801 781 769 777 778 776 779 776 772 771 769 768 768 768 768 768 767
733 730 727 727 731 733 733 734 738 741 739 734 729 727 730 734 735 734 735 737 738 736 734 734 731 727 726 729 734 740 744 747 749 748 750 755 757 758 760 759 760 760 759 760 762 763 769 775 776 778 778 776 776 782 785 783 782 787 792 796 801 806 810 809 802 794 797 807 801 786 792 796 774 764 773 774 771 772 769 767 767 766 767 767 766 766 765 764
731 730 728 725 727 729 727 729 735 740 740 738 735 731 729 731 732 731 733 736 738 737 736 733 730 728 728 727 728 735 741 745 747 747 749 754 756 757 760 761 762 762 761 762 765 766 767 769 772 777 779 777 779 785 785 781 782 787 789 792 795 798 800 798 792 788 792 797 791 783 788 786 769 765 770 767 765 766 764 765 765 764 765 765 764 764 762 762
730 730 728 726 726 726 726 729 734 739 740 740 739 734 730 729 729 730 732 733 734 736 737 734 731 731 733 731 729 733 736 735 737 741 744 750 754 755 756 756 758 762 763 763 766 768 768 769 772 777 781 780 777 782 787 785 783 786 788 789 790 793 795 794 790 789 793 796 790 787 792 781 763 762 765 760 761 764 763 763 763 763 763 762 762 761 760 759
730 729 729 729 728 726 726 728 732 736 739 739 737 734 732 730 726 728 731 730 729 732 734 734 733 734 735 735 734 737 739 735 734 738 739 742 746 748 749 749 751 758 763 763 765 766 768 773 774 776 782 780 771 775 788 789 787 789 788 783 784 789 791 789 789 789 789 789 789 793 794 775 757 760 761 756 759 763 760 760 761 760 760 759 758 757 756 756
730 729 729 732 729 725 724 727 730 733 732 732 732 730 729 728 726 728 733 732 729 729 731 732 733 734 736 737 737 739 742 742 742 745 745 744 746 747 748 748 748 751 757 761 764 766 766 768 770 774 780 778 770 774 784 788 793 793 780 770 774 781 782 782 785 783 779 780 783 785 777 759 753 760 760 755 759 761 758 757 757 756 756 756 754 753 754 753
Wind_Speed
14 14 13 11 10 9 8 8 7 6 7 7 6 4 4 6 7 7 9 10 9 9 9 8 7 7 6 5 4 3 3 4 4 5 5 5 6 7 7 7 5 6 5 6 6 4 1 2 5 4 1 1 1 1 1 1 1 4 3 3 1 1 0 2 4 6 5 5 6 6 6 7 4 1 1 2 5 3 4 5 4 7 8 8 12 21 29 27
14 14 13 11 10 9 8 7 6 6 8 8 7 5 4 5 6 6 8 8 8 8 8 7 7 6 6 4 4 3 3 4 3 5 9 7 6 7 7 6 5 5 6 6 6 3 1 3 6 4 3 1 1 1 1 2 2 3 3 4 1 3 0 4 2 4 5 7 7 7 6 6 6 5 3 2 2 3 5 2 4 7 6 9 15 21 25 25
15 14 13 11 11 9 8 7 6 6 7 8 8 6 5 5 5 6 6 7 7 7 7 6 7 6 5 4 3 3 1 2 1 5 10 10 7 8 6 6 6 6 6 6 4 3 3 5 7 5 4 0 1 2 1 2 1 2 3 4 3 5 1 5 3 1 4 9 9 6 5 3 4 4 3 4 4 4 5 4 4 4 5 7 10 17 22 22
16 14 12 11 11 9 8 6 5 5 6 8 8 7 6 5 5 6 6 6 6 6 6 6 6 6 5 4 3 2 2 3 1 5 10 11 9 7 6 6 6 6 6 5 4 4 6 8 5 4 4 1 1 2 2 1 1 1 3 4 5 4 2 4 4 4 3 10 9 7 6 4 3 4 3 5 5 3 6 7 8 8 10 11 9 14 20 20
17 15 12 11 10 9 8 6 5 4 5 7 8 7 6 6 5 6 6 6 6 6 6 6 6 6 5 4 3 2 3 3 3 5 12 12 9 7 6 6 6 6 6 5 5 4 5 6 1 3 3 1 1 2 2 3 3 3 1 4 3 2 3 4 3 5 2 8 7 7 7 5 4 3 4 7 5 5 6 7 10 10 13 15 13 15 17 17
18 16 14 12 10 10 8 6 5 4 4 6 8 8 7 6 6 6 6 6 6 6 6 6 6 5 4 3 3 3 4 2 2 5 11 10 8 7 6 6 6 6 5 5 4 2 3 2 2 2 2 2 3 3 3 2 4 3 1 1 3 2 4 2 2 5 3 9 7 5 5 4 5 2 3 7 6 6 5 6 8 8 15 20 18 17 14 14
19 17 14 12 11 10 8 7 6 4 4 6 8 8 7 7 7 7 6 6 6 5 5 5 5 5 3 3 3 2 2 3 3 7 9 7 7 6 5 5 6 6 6 5 2 1 1 0 1 3 3 2 3 4 3 1 5 5 1 1 3 4 4 1 1 4 6 8 3 3 4 3 6 3 1 3 7 6 6 5 7 10 17 20 16 14 14 16
19 18 15 12 11 11 9 7 6 5 4 6 8 8 8 7 7 7 6 6 5 5 5 5 5 4 4 5 4 2 0 4 6 10 9 7 5 6 6 4 4 6 6 5 3 2 2 2 4 3 2 2 4 3 2 4 5 4 3 2 2 3 1 1 3 5 7 5 2 5 4 2 6 5 1 5 8 6 6 5 9 12 15 15 13 13 13 14
18 18 16 13 12 11 11 8 6 5 5 6 7 8 8 7 7 7 6 6 5 5 5 5 5 4 6 5 4 2 2 4 9 12 9 6 4 5 6 4 5 5 4 5 5 2 2 3 5 4 4 3 5 4 2 5 1 2 5 3 3 2 1 2 4 5 4 2 4 5 1 2 4 3 2 7 8 7 6 7 8 11 11 11 11 12 12 12
18 18 16 14 13 11 12 10 7 6 4 6 8 8 9 8 8 8 7 6 5 6 5 5 5 5 6 4 4 1 3 5 11 13 9 6 5 6 6 5 5 4 3 5 3 2 3 3 5 4 5 2 4 2 2 5 3 3 7 5 5 5 2 2 3 3 3 3 5 5 1 4 3 1 3 8 6 7 8 7 7 9 10 10 9 10 13 14
17 17 17 15 13 12 12 11 11 8 5 7 9 8 9 9 8 8 7 6 6 6 5 5 5 5 6 4 4 3 3 5 11 11 9 6 5 5 5 4 5 3 2 3 4 2 2 2 3 1 2 2 3 3 2 3 4 6 9 6 3 3 1 3 5 2 2 2 2 4 0 4 4 1 6 7 3 8 9 8 7 8 8 9 9 9 11 13
18 18 17 16 14 12 12 11 12 10 8 9 9 9 9 9 8 8 8 7 6 6 5 5 5 6 5 3 2 5 3 6 10 9 8 6 5 4 4 4 5 3 2 4 5 3 2 1 3 4 1 2 4 2 1 2 5 7 7 6 1 4 3 1 3 2 3 1 2 4 2 5 1 5 9 5 4 8 8 8 7 7 7 7 8 7 8 12
19 18 17 16 14 12 11 11 12 12 11 11 9 9 9 9 9 8 8 7 6 5 5 5 5 6 4 0 3 4 3 8 10 8 7 6 5 5 5 4 3 1 3 6 7 6 3 2 5 6 2 4 3 1 2 3 5 4 3 6 3 5 3 5 1 2 4 1 2 3 1 5 6 10 9 4 5 7 7 7 7 7 6 6 7 6 7 11
19 18 17 15 13 11 11 10 10 11 12 12 9 9 10 10 9 9 8 7 6 5 5 6 6 6 3 1 2 2 6 10 11 9 9 8 7 7 5 4 3 3 5 8 8 6 4 3 7 6 2 4 4 1 4 4 3 3 2 3 3 3 3 6 0 4 4 1 3 6 2 5 7 10 7 5 6 8 7 7 6 6 6 6 7 7 7 9
20 18 16 14 12 11 10 10 9 9 12 11 9 10 10 9 8 8 7 7 6 6 6 6 7 6 2 2 1 4 8 9 9 11 10 8 8 6 5 7 6 6 8 8 9 7 5 5 6 5 1 2 4 5 4 3 2 2 3 2 1 3 3 6 2 5 5 2 3 6 2 6 7 9 5 3 6 7 7 7 7 7 7 7 7 7 7 8
19 18 16 13 12 11 10 9 8 9 11 11 10 10 8 7 7 7 7 7 7 7 7 5 7 6 2 2 1 5 6 5 8 11 9 8 7 6 8 8 7 7 7 7 8 7 6 6 4 2 3 2 5 6 4 4 3 3 3 2 2 3 2 4 3 1 5 1 2 2 2 4 4 5 6 3 4 6 6 7 8 8 8 8 7 7 7 7
20 19 16 13 11 11 9 8 8 9 10 12 10 8 7 6 6 7 6 8 7 7 7 3 4 4 1 1 2 3 4 5 9 11 9 8 7 8 8 5 4 4 4 4 5 4 5 5 1 1 3 3 3 6 5 2 2 3 2 1 3 4 4 2 3 3 3 4 0 0 2 5 6 6 7 6 4 5 6 9 9 9 8 8 8 8 8 8
22 19 16 13 11 10 9 8 9 10 11 11 9 8 9 8 7 7 8 10 8 6 2 1 2 3 2 2 3 3 6 9 11 11 9 8 8 8 4 2 3 3 4 4 3 3 3 3 2 2 3 2 2 5 4 4 5 4 3 1 2 2 3 3 3 2 2 3 2 1 3 10 11 9 7 7 6 7 9 10 9 9 9 8 8 8 8 9
21 19 16 13 11 10 9 9 9 10 10 10 11 12 11 9 7 6 7 8 6 4 2 3 4 3 2 5 4 4 9 11 10 9 8 7 7 5 2 3 4 4 4 3 3 2 2 3 4 3 2 2 4 5 5 6 7 8 6 5 4 3 1 3 2 2 2 3 4 6 5 9 11 10 9 9 7 8 10 10 8 8 8 8 8 8 8 9
19 18 17 14 12 10 8 8 8 9 12 13 14 12 9 6 4 2 2 2 3 2 2 4 6 3 1 3 5 10 12 8 5 5 7 7 5 4 3 3 5 5 2 3 1 1 4 4 2 4 6 6 6 7 7 5 6 7 5 5 4 5 0 2 1 4 0 3 5 7 6 8 9 11 11 9 7 7 10 10 10 10 9 8 8 8 9 10
19 17 17 15 12 10 9 9 9 11 13 13 12 6 4 5 4 3 3 2 7 3 2 1 4 3 2 6 10 12 8 3 1 2 7 7 4 4 1 2 5 3 1 4 3 2 5 5 4 6 7 7 6 6 6 5 6 6 5 5 3 4 2 2 1 4 2 2 5 3 4 10 10 10 11 8 8 9 11 11 12 13 11 9 9 10 10 8
19 18 18 16 12 10 10 10 10 12 12 11 8 4 1 3 4 6 7 1 7 5 1 1 3 3 2 9 12 6 4 3 2 1 6 6 3 3 2 3 5 3 1 4 3 4 5 1 7 7 5 5 5 5 8 7 6 6 4 5 3 1 2 1 2 3 1 2 4 4 5 10 11 10 11 10 10 11 10 11 12 12 11 9 9 9 10 8
18 19 19 16 13 11 10 10 11 11 12 11 8 5 2 2 3 7 7 3 2 3 1 1 2 3 2 4 8 4 3 5 4 4 7 7 3 3 5 4 5 5 2 4 5 4 2 4 7 5 5 8 6 5 8 7 5 4 4 5 1 1 2 0 3 3 0 1 2 3 4 9 10 7 10 11 10 11 10 9 10 10 10 11 10 10 10 10
19 20 19 16 14 13 11 11 11 10 12 12 12 9 7 4 2 8 5 2 2 2 2 3 2 4 4 3 7 6 3 3 4 5 9 9 4 3 5 5 5 5 3 5 8 6 4 5 4 2 5 8 6 5 6 6 3 2 3 5 3 2 4 2 2 2 2 3 2 3 5 6 6 5 7 7 4 6 8 7 10 10 9 9 8 9 9 10
22 21 18 17 15 14 13 12 10 11 11 10 14 13 9 5 3 7 4 2 2 1 1 3 1 4 7 5 6 6 3 1 1 3 8 9 5 3 3 3 4 4 6 6 8 5 5 4 1 3 4 6 7 3 3 6 3 3 0 3 6 7 6 3 4 5 5 5 3 3 4 6 5 6 7 6 5 6 6 5 10 10 6 7 7 8 8 7
22 21 19 17 15 17 15 9 10 12 8 9 13 12 6 2 4 6 4 4 2 1 2 4 2 7 9 6 6 4 3 1 3 0 7 6 2 3 3 2 2 4 7 5 4 3 2 2 3 5 5 7 7 3 2 6 6 0 3 4 6 8 7 5 5 4 2 3 3 3 2 5 7 6 9 9 9 11 9 7 12 11 5 6 7 7 7 5
22 21 19 15 17 22 14 5 12 13 5 8 11 9 6 3 4 5 4 5 3 3 5 2 0 7 9 6 8 6 3 4 1 2 3 4 1 3 3 4 2 2 3 4 2 2 1 3 5 5 6 6 5 2 2 6 8 2 4 5 6 7 7 5 6 4 2 3 4 4 3 3 6 6 9 10 9 11 10 10 13 10 5 7 8 7 6 6
23 21 18 15 22 24 10 8 18 14 2 4 10 10 7 5 5 5 6 2 2 3 5 2 1 6 6 5 7 5 3 5 5 1 1 3 1 3 3 5 6 4 0 5 4 3 1 4 4 5 6 4 3 3 2 5 6 4 4 5 6 7 7 5 7 3 1 2 5 6 1 2 6 7 6 4 4 9 10 12 13 9 7 8 6 4 4 5
24 21 17 19 26 21 7 9 16 13 4 2 9 12 9 7 4 5 4 2 1 1 2 2 3 4 4 5 4 3 2 2 3 2 1 2 0 3 3 5 6 6 4 5 6 3 0 4 6 6 5 4 4 2 2 4 4 3 3 6 5 5 5 5 5 3 3 2 4 6 2 2 5 7 5 0 2 7 9 9 9 7 6 5 3 4 3 2
24 21 20 24 25 19 9 3 7 11 6 2 9 13 9 5 4 5 4 4 2 1 1 2 3 4 7 7 3 2 4 3 1 2 1 1 2 4 2 1 5 7 5 6 4 1 2 1 2 3 3 5 5 2 2 3 5 5 5 7 7 6 5 4 3 4 3 3 6 7 5 2 4 6 4 3 4 6 5 4 5 4 3 3 4 4 4 3
23 22 25 25 21 19 10 2 5 10 5 3 10 13 7 3 3 5 6 3 2 2 1 2 3 6 13 13 6 3 4 3 2 6 4 2 2 2 1 2 4 5 4 4 3 3 5 3 1 1 0 3 6 4 5 5 5 6 5 5 4 4 5 5 5 4 1 5 6 6 2 3 4 6 4 5 7 6 5 4 5 6 5 5 6 5 5 3
25 23 27 25 19 17 10 1 4 9 5 6 10 8 5 4 2 4 4 2 2 3 4 5 5 7 13 12 6 5 5 3 3 6 6 5 4 3 4 4 4 4 1 3 1 2 3 2 2 3 2 3 6 5 4 6 5 5 5 6 4 2 3 3 3 1 2 6 5 4 2 3 6 6 6 9 9 6 5 6 7 8 7 7 7 6 5 5
26 26 26 25 19 17 11 4 4 8 7 8 7 4 4 5 6 7 5 3 3 4 5 6 6 8 11 9 6 6 5 3 4 4 4 5 5 5 4 4 6 5 3 5 4 2 2 5 3 1 3 2 6 6 2 1 0 4 5 5 5 3 2 2 4 1 3 5 4 3 2 3 4 4 8 11 9 7 6 6 7 8 8 8 8 6 6 5
26 27 27 24 20 17 13 7 4 7 9 7 5 4 4 6 6 9 9 5 3 3 4 6 9 10 10 8 7 7 4 2 6 6 4 5 5 6 5 5 4 5 4 4 3 5 3 3 3 4 2 3 6 5 6 6 3 4 5 6 5 5 4 4 3 3 4 4 3 3 2 3 2 3 7 7 7 7 6 6 5 5 5 4 4 5 6 6
27 28 28 25 22 20 17 10 5 6 7 5 5 5 7 7 6 8 9 5 3 3 4 7 11 10 9 4 4 8 5 2 6 6 5 6 6 7 6 6 7 5 6 5 3 3 5 4 4 2 1 5 6 3 4 7 2 2 4 6 2 4 5 3 3 5 3 1 3 2 3 5 4 6 8 7 9 8 7 7 5 5 5 0 3 5 5 5
31 27 26 25 23 23 21 16 10 4 3 5 6 6 7 8 7 6 7 6 5 6 9 7 7 7 6 3 4 9 3 3 7 5 4 5 4 7 7 6 8 7 6 6 3 2 4 2 4 4 4 3 4 1 1 4 2 1 3 3 5 4 7 5 2 0 3 1 4 2 5 5 3 6 8 6 8 8 8 9 7 7 6 3 4 5 5 6
33 26 21 22 24 25 21 18 14 6 1 4 8 8 7 8 5 4 4 6 6 9 11 6 4 6 6 5 6 10 5 3 6 5 4 4 2 6 9 5 7 10 8 6 3 3 5 1 4 3 2 2 2 2 3 2 3 5 3 5 3 1 4 4 1 2 3 2 4 2 6 6 2 5 6 5 4 3 6 8 9 9 6 5 7 5 6 7
25 23 14 19 26 25 20 17 14 6 2 3 8 8 8 8 4 4 5 7 8 9 9 6 4 5 7 7 6 9 8 6 7 6 5 5 4 6 10 5 6 11 10 5 3 3 5 3 4 1 2 5 3 4 1 4 2 4 4 3 3 2 1 2 2 2 1 2 5 4 5 5 5 6 4 5 5 3 5 9 10 11 8 7 8 7 6 6
12 13 6 17 28 25 22 19 11 5 2 5 10 8 7 9 5 2 5 9 9 7 7 5 4 4 6 7 6 7 8 7 9 6 4 5 5 6 11 7 5 10 10 7 5 3 3 4 2 2 1 2 4 2 4 1 2 2 1 1 2 3 4 3 3 3 3 3 4 3 4 4 6 6 6 8 9 7 9 9 8 10 11 8 7 7 7 6
3 2 3 22 33 28 26 18 7 4 4 7 11 6 3 5 4 3 3 6 6 5 5 5 5 6 5 6 6 7 6 6 9 6 4 6 5 5 9 9 7 10 10 7 5 2 2 3 4 2 3 0 2 3 7 8 4 2 2 2 1 2 2 1 1 2 4 4 3 2 5 7 6 4 8 9 9 9 9 8 8 9 9 8 7 7 7 6
2 3 3 27 39 33 26 14 3 5 5 7 10 6 1 1 3 6 6 3 4 3 4 6 8 7 6 6 6 5 4 5 8 6 4 6 7 5 7 9 9 9 8 6 6 4 2 3 4 2 1 3 5 5 5 9 7 6 6 6 6 4 4 2 2 2 2 3 4 3 5 11 5 5 6 8 7 8 7 8 8 7 7 7 8 7 7 6
2 1 2 23 45 38 20 8 4 5 5 6 6 3 1 1 1 5 5 1 3 2 3 5 7 7 7 7 7 7 7 5 6 7 4 8 9 6 6 8 11 12 10 8 8 5 4 4 5 3 3 5 6 5 2 4 4 4 4 4 5 4 5 6 4 4 1 2 3 4 3 10 4 6 6 6 6 5 5 7 7 6 6 6 7 6 6 6
3 2 5 15 43 38 14 5 7 5 6 4 2 1 0 0 0 2 2 2 3 2 2 3 6 7 5 6 7 9 9 6 7 9 6 7 8 6 8 10 13 13 10 7 7 4 3 4 4 1 2 3 5 5 3 2 3 3 2 3 5 4 4 6 5 4 3 4 3 3 4 10 4 2 2 2 3 3 4 6 6 5 5 6 7 6 6 7
2 3 3 8 30 28 10 7 10 10 10 5 3 3 1 1 2 1 1 2 2 2 3 3 5 6 4 5 8 11 11 6 6 9 6 5 6 5 7 12 13 12 9 7 7 6 3 3 5 4 1 3 4 4 3 3 1 2 4 4 6 7 6 3 2 3 2 7 7 5 7 10 3 4 5 6 5 2 3 4 3 4 6 6 6 6 6 7
1 3 1 5 13 11 4 4 7 11 13 8 7 8 4 1 2 2 2 1 2 1 3 2 3 5 5 6 8 10 12 7 4 7 5 3 3 2 4 12 13 11 8 7 8 7 5 5 6 7 6 6 5 5 5 3 2 2 3 5 7 9 10 6 2 3 6 7 8 7 11 12 6 3 4 6 5 4 7 7 5 5 7 6 6 6 6 7
1 2 2 2 4 4 2 0 0 5 10 11 8 8 9 7 2 1 3 1 2 0 1 2 2 5 5 8 8 7 11 8 3 5 7 5 3 2 3 10 12 9 7 9 9 6 4 3 7 10 11 11 10 7 5 7 6 5 6 8 9 9 11 8 4 5 9 5 5 10 13 13 16 12 8 8 6 5 7 7 6 7 7 6 7 7 7 7
1 1 3 3 1 3 5 4 3 3 4 10 9 8 13 12 4 1 1 1 0 1 1 1 1 3 6 9 8 7 11 9 3 6 8 6 3 2 1 5 7 5 6 9 8 5 5 4 9 11 13 13 10 8 8 10 10 11 11 11 11 11 11 11 9 11 10 5 7 13 9 10 22 20 12 12 10 7 8 9 8 8 8 7 7 7 8 8
2 1 1 1 0 3 6 6 7 5 4 7 6 6 13 15 10 6 3 1 1 1 1 1 3 5 8 10 8 5 8 8 4 5 6 4 3 1 3 2 0 0 3 6 5 5 5 5 8 9 11 12 8 7 10 12 10 10 12 13 13 13 13 15 17 17 11 8 12 15 10 14 24 20 10 10 9 9 11 10 9 8 7 7 8 8 9 8
2 1 1 0 1 3 4 5 9 9 7 6 3 3 10 16 15 9 2 3 1 2 2 3 5 6 6 7 8 6 7 8 6 5 5 5 4 4 3 1 1 2 3 5 4 2 3 5 6 8 9 10 8 7 10 11 8 7 10 12 13 16 18 20 21 20 15 12 14 16 13 16 20 14 8 9 9 8 8 6 6 6 7 8 9 9 9 9
1 1 1 1 0 2 2 4 9 8 6 6 5 4 6 12 15 10 3 5 6 3 2 4 5 2 3 3 5 4 6 8 8 8 7 8 5 4 4 4 3 1 3 4 3 1 2 4 3 7 5 8 8 8 8 9 8 6 7 10 13 15 16 18 17 14 11 11 14 15 14 17 15 6 6 11 7 5 8 8 7 7 8 8 9 10 10 10
3 2 1 1 1 3 3 4 7 7 4 5 7 5 5 10 14 10 4 3 6 5 5 7 4 3 4 3 5 2 3 4 6 7 7 7 7 5 3 5 7 7 3 3 3 2 3 3 1 5 4 6 8 7 6 6 5 4 7 12 14 12 11 12 11 9 11 12 15 13 12 16 12 5 7 12 5 5 10 9 7 8 8 8 10 10 10 10
5 3 0 0 2 3 4 4 7 7 4 5 8 8 8 10 9 9 5 2 3 6 6 8 6 3 2 2 4 4 4 7 8 5 4 4 4 5 3 2 6 8 8 6 3 3 6 5 2 4 5 5 7 5 7 8 4 4 11 15 15 12 11 7 5 10 15 14 12 11 13 17 12 5 8 11 5 5 10 7 7 8 8 9 10 10 9 9
Wind_Direction
187 191 191 181 175 176 179 186 178 163 164 173 173 178 196 188 182 181 182 185 187 187 189 193 198 207 209 220 236 243 260 230 208 214 215 207 211 216 204 206 215 213 207 204 207 207 224 283 252 228 201 237 133 173 317 318 53 61 78 89 42 228 82 289 209 177 147 151 174 179 150 129 157 170 128 58 60 95 95 79 66 41 48 85 113 134 145 152
189 189 193 183 176 179 184 186 182 173 171 175 178 184 193 187 185 180 178 181 183 188 192 196 202 207 208 219 234 255 267 219 225 251 228 221 215 200 192 202 211 206 204 201 205 188 99 296 254 193 109 46 290 23 17 317 75 97 105 96 207 199 58 314 225 155 138 151 166 174 165 144 169 168 135 151 161 135 112 94 79 70 64 93 118 135 146 154
193 192 197 190 181 183 189 187 186 183 174 177 184 191 194 186 184 176 174 181 186 191 194 203 206 207 209 214 237 267 257 161 285 263 227 216 201 187 186 204 208 203 199 187 188 196 208 279 266 185 108 143 252 56 80 328 73 144 103 88 238 194 138 337 359 77 149 147 148 170 175 152 176 153 137 177 171 167 166 170 123 129 168 149 143 146 152 159
195 198 204 198 186 184 191 188 188 184 172 180 189 194 197 191 183 177 177 183 191 195 198 205 206 206 209 216 241 243 118 87 286 225 198 192 182 179 191 205 206 201 199 197 214 228 247 291 277 176 114 205 265 71 148 265 141 110 102 145 229 173 106 319 339 4 115 137 146 156 130 130 172 142 150 152 142 230 227 198 182 185 178 167 166 160 161 166
192 199 204 202 192 182 188 190 188 185 173 182 192 196 196 192 187 181 183 190 197 200 202 205 206 207 208 218 232 203 115 85 274 195 174 174 167 178 197 204 205 204 204 211 226 234 262 289 284 123 90 172 171 79 212 235 117 61 84 163 237 130 112 274 316 2 82 124 126 129 128 154 149 137 175 148 153 229 231 207 199 189 168 166 172 167 168 171
192 199 203 207 199 182 186 193 190 189 180 182 192 196 194 192 191 188 191 195 201 203 206 206 205 202 205 217 211 180 139 156 272 168 168 164 160 180 192 202 202 205 207 204 226 261 275 296 91 128 109 145 163 151 205 240 100 92 252 36 355 90 123 247 345 358 60 104 113 135 146 149 122 167 203 161 188 212 205 196 188 181 164 164 164 163 172 179
195 198 203 210 205 188 186 192 193 194 188 192 195 193 194 195 194 194 195 199 206 207 207 208 205 199 193 183 176 143 138 236 226 167 170 157 163 181 178 199 196 199 205 194 217 226 186 36 164 174 124 130 181 166 167 85 74 95 169 350 29 70 100 170 71 29 66 95 132 140 116 133 149 184 205 196 224 203 196 183 133 137 148 152 157 167 180 183
196 198 202 209 209 197 191 192 196 204 207 207 201 195 196 198 198 197 198 203 207 207 209 208 203 193 179 168 145 86 340 240 191 170 170 158 171 179 167 183 185 197 202 198 224 208 160 191 214 187 126 181 162 142 129 77 52 85 148 193 99 70 83 126 79 60 71 84 83 98 103 181 178 169 152 233 236 198 185 153 116 122 136 149 163 177 183 185
198 200 203 208 210 206 206 205 201 210 220 221 208 198 197 199 201 200 199 204 206 210 210 201 201 191 182 170 114 92 243 205 173 170 168 163 176 176 172 165 168 191 208 227 243 221 166 192 215 193 172 187 120 109 105 100 120 170 141 145 114 115 167 99 63 58 77 69 63 92 62 282 202 177 245 239 224 192 162 133 133 134 144 165 174 181 183 186
201 203 204 209 212 217 225 227 224 218 220 232 218 199 197 199 200 200 198 201 206 211 207 196 199 184 182 167 104 150 243 181 172 172 167 173 175 171 175 169 174 195 237 237 224 162 163 203 229 185 150 118 98 89 77 119 170 136 115 110 115 141 181 92 94 67 72 48 59 99 265 295 286 322 255 259 230 172 147 140 155 149 161 180 181 188 188 188
202 203 203 207 215 222 230 237 240 231 224 235 225 203 199 200 198 199 198 198 204 207 204 197 194 179 170 141 129 195 241 176 176 170 162 173 178 180 174 174 189 192 225 200 158 147 158 237 271 146 119 91 97 48 46 117 119 119 113 90 90 123 62 71 114 127 70 44 51 103 50 310 348 340 228 248 210 151 150 162 174 169 179 189 188 192 191 195
201 201 202 208 214 224 231 239 245 242 236 236 226 211 203 198 196 197 194 196 203 201 195 189 188 180 154 103 174 217 232 175 173 165 158 160 164 175 156 174 201 192 213 180 163 174 135 8 31 87 129 121 112 72 118 132 109 126 111 93 57 41 37 193 139 157 101 70 259 111 13 311 237 233 240 234 158 141 149 170 185 192 196 200 201 197 197 203
201 201 204 210 215 225 236 244 249 247 243 240 231 217 206 196 194 195 192 193 196 191 187 180 178 175 149 102 224 221 202 165 163 160 152 147 138 135 126 149 177 158 214 185 169 163 127 40 86 110 117 101 124 188 129 88 94 129 90 99 107 33 343 256 196 111 109 77 301 105 342 286 241 247 254 223 156 136 155 188 200 206 209 213 214 209 211 208
200 203 205 211 217 223 233 244 249 245 242 242 230 216 208 197 191 191 188 185 184 179 175 165 160 158 144 245 235 181 166 155 157 156 146 143 126 112 111 127 135 130 163 161 150 139 113 100 100 97 71 100 134 131 71 43 62 118 80 69 94 95 282 288 278 130 129 296 13 87 185 263 270 278 269 202 164 147 176 213 219 219 221 220 218 214 218 213
200 203 205 210 215 220 227 237 246 240 236 234 221 215 210 198 191 186 182 174 168 169 162 157 161 143 99 274 262 144 156 154 159 157 145 141 126 114 114 116 123 126 131 129 119 109 103 110 94 78 49 61 87 90 72 32 13 78 98 317 338 134 242 307 316 151 151 264 31 91 204 266 277 285 287 197 156 155 187 224 233 231 228 221 221 215 216 222
202 202 205 210 213 216 222 233 242 237 233 226 216 211 201 194 186 174 170 161 156 162 147 147 174 156 104 242 167 137 161 171 168 160 150 147 138 130 122 110 110 117 121 117 104 95 89 86 71 99 120 77 88 103 78 40 352 356 98 203 235 136 200 295 318 217 143 130 3 103 217 270 276 278 294 280 179 175 204 231 234 232 230 220 217 216 211 220
201 201 203 207 210 212 217 229 233 235 236 221 206 192 179 175 166 156 150 145 142 151 147 140 175 166 87 111 129 167 189 179 171 166 158 152 145 142 133 109 109 119 107 98 91 76 62 57 53 147 89 78 113 100 78 55 293 298 63 189 229 160 161 213 287 286 107 105 252 224 225 252 265 271 283 279 222 198 221 237 239 233 232 224 214 218 214 209
199 199 202 203 207 210 213 224 232 238 232 207 180 153 143 135 131 131 132 133 114 104 144 297 131 159 252 201 175 193 177 167 169 168 160 152 150 153 155 117 111 92 58 49 35 45 47 31 65 99 43 46 129 97 105 196 196 194 182 182 249 173 148 188 220 259 112 111 226 195 239 258 267 272 267 262 228 207 226 234 239 238 233 228 214 215 217 210
196 197 200 202 204 205 212 223 232 229 206 174 149 132 118 106 104 114 129 135 114 98 189 222 150 155 224 196 181 140 147 154 155 161 161 154 156 159 137 103 93 73 66 50 12 38 82 44 56 107 157 196 186 150 162 193 174 170 173 152 164 149 151 226 210 277 137 126 239 214 224 255 265 273 268 260 233 210 232 241 242 246 239 233 223 219 218 216
196 197 198 199 199 203 211 213 212 199 174 155 146 133 118 116 102 109 149 177 210 180 174 191 173 154 91 151 141 123 128 135 138 166 171 160 154 140 97 66 57 51 80 135 125 14 84 87 119 174 196 211 204 178 166 160 139 138 123 106 136 134 122 258 230 302 94 122 250 231 238 258 261 269 267 267 256 223 231 242 246 245 241 234 228 230 224 222
196 196 195 192 192 198 201 194 188 181 167 158 158 151 153 158 134 164 176 278 257 243 40 192 159 119 95 133 141 135 123 98 58 167 175 169 142 128 118 52 74 49 268 152 133 7 66 104 207 215 205 198 186 161 131 96 83 90 104 96 74 110 159 230 209 290 339 114 266 293 295 270 260 262 264 267 267 245 223 224 239 240 238 237 231 236 234 233
194 194 190 185 187 193 194 188 180 179 176 173 185 215 210 144 124 160 151 127 256 240 56 12 89 65 77 138 156 154 85 89 73 243 190 172 125 140 155 81 109 162 215 112 88 31 54 168 233 222 184 122 96 103 97 86 82 75 85 95 65 111 160 305 317 293 7 126 271 351 348 280 269 260 259 255 247 250 231 217 233 236 237 240 228 232 236 238
194 193 187 181 185 188 190 185 176 183 190 190 202 209 155 82 107 163 152 99 235 230 176 176 121 116 89 146 186 186 81 131 157 232 203 161 134 164 141 116 138 160 147 119 125 115 113 239 239 211 134 92 72 70 81 76 70 80 94 107 182 231 130 285 303 285 282 120 266 335 325 280 281 279 267 257 243 251 253 238 241 237 233 235 226 225 224 223
195 190 185 179 178 182 183 173 172 194 201 208 220 196 144 89 125 172 167 73 169 219 210 191 155 155 159 167 188 172 129 145 146 196 194 160 144 152 146 153 144 141 177 159 137 146 200 246 250 131 95 98 98 64 78 91 41 1 115 129 173 148 121 162 292 326 354 1 351 351 329 288 301 323 288 281 278 262 263 260 255 247 238 239 237 233 224 215
192 187 181 174 175 180 174 165 181 198 199 222 224 196 153 93 105 171 159 46 194 292 332 203 192 183 178 150 164 174 145 87 69 195 182 165 151 140 166 175 139 166 201 164 129 150 228 263 271 113 85 86 104 90 121 129 89 329 223 157 166 143 124 106 23 29 30 347 320 28 357 294 309 322 285 296 327 291 293 303 270 257 237 229 233 232 228 218
189 184 176 174 178 172 161 169 198 188 188 226 212 189 184 113 96 165 136 45 266 266 144 181 172 178 179 156 158 154 106 172 309 152 150 160 165 118 158 181 105 181 192 158 133 158 230 337 62 124 112 79 88 104 198 137 105 243 226 173 148 121 108 91 59 55 68 271 284 67 104 270 302 299 267 274 284 277 291 301 273 264 240 221 228 224 219 203
187 181 175 180 180 168 158 176 181 166 176 233 207 186 211 200 133 154 100 38 280 194 147 183 243 171 174 171 162 136 160 199 48 39 127 145 224 60 129 182 128 189 191 121 132 231 160 65 61 89 90 80 98 122 216 124 112 213 229 152 123 102 110 115 94 94 194 250 320 17 126 241 290 268 253 258 268 278 285 275 266 267 252 235 241 230 216 201
187 179 176 183 175 166 152 143 160 165 193 226 195 191 200 193 166 132 96 84 243 143 145 203 172 159 156 156 149 119 175 171 121 237 296 108 153 48 96 189 166 165 87 117 172 255 122 146 157 118 91 98 159 207 246 110 109 237 225 137 118 111 124 119 97 93 15 40 323 315 103 232 270 267 273 265 254 274 271 258 261 267 250 237 239 220 210 214
185 178 176 174 168 166 151 132 156 178 201 156 178 187 185 180 159 98 98 173 193 91 141 148 142 157 139 135 138 103 105 92 123 219 329 88 120 53 123 199 154 123 39 95 159 232 101 174 184 134 119 166 188 238 255 113 118 213 164 89 66 73 81 78 94 99 33 35 260 258 200 217 267 272 287 43 202 257 262 259 262 265 253 232 192 156 159 156
183 177 172 167 172 185 197 193 185 180 174 145 172 174 166 162 138 119 175 207 166 131 102 142 174 161 141 142 162 166 122 54 70 118 57 135 13 24 113 156 104 102 36 44 93 262 313 207 167 107 138 175 152 106 46 99 122 124 90 62 41 28 38 42 65 82 53 295 256 241 205 200 283 278 248 192 209 232 236 267 276 267 248 209 186 181 175 156
180 174 173 172 181 195 193 242 218 179 165 151 159 159 144 104 104 149 193 212 135 119 100 171 195 153 157 161 168 165 115 71 152 140 139 160 45 29 111 78 65 72 44 42 45 343 357 23 355 334 252 134 101 65 21 23 72 89 82 79 60 353 13 19 3 45 88 258 261 265 236 177 244 266 257 256 264 244 193 196 230 228 221 214 214 212 198 193
179 172 176 180 186 191 181 126 190 181 174 156 151 148 124 111 175 202 202 167 159 191 173 182 204 176 167 160 149 149 126 114 176 155 151 154 162 184 170 165 146 97 155 181 122 0 4 345 295 330 309 137 105 77 20 357 21 75 91 94 91 343 11 2 324 22 223 249 258 289 321 211 236 250 259 273 280 262 211 200 206 206 214 225 224 215 199 191
179 173 177 184 188 189 178 132 157 182 177 161 145 105 96 143 196 212 204 177 186 192 162 163 173 163 157 150 154 160 129 138 181 168 155 145 163 206 237 212 160 127 178 178 128 118 337 317 306 7 310 200 135 129 130 288 171 129 135 127 133 134 101 255 272 284 259 262 268 298 302 259 277 270 243 247 255 251 238 231 210 189 202 223 222 204 192 191
178 174 178 186 191 191 180 150 132 166 172 161 131 113 140 174 198 203 208 219 196 151 134 147 141 144 164 169 173 164 123 146 174 152 142 137 155 200 230 235 186 111 113 145 150 161 171 284 240 181 221 186 167 173 158 151 155 171 159 133 144 158 158 196 214 207 242 276 286 295 269 207 220 271 248 242 261 275 271 258 235 211 224 222 195 176 175 192
179 176 179 184 192 195 192 188 162 147 164 153 129 155 178 189 198 199 203 211 187 138 123 139 135 147 179 175 171 177 147 165 184 151 156 169 173 188 194 207 199 153 123 158 196 159 161 228 256 273 262 158 171 232 132 115 100 243 145 110 159 187 147 146 184 178 172 298 293 262 237 212 209 269 270 260 268 280 288 294 301 287 285 291 163 176 179 201
179 177 180 184 192 196 196 203 204 183 160 143 150 181 198 201 198 188 183 179 174 137 118 127 136 150 177 156 180 198 165 126 172 167 184 187 182 190 190 199 194 179 154 157 174 155 151 242 310 351 13 120 163 260 83 124 179 208 139 169 220 179 119 119 227 7 92 254 270 216 249 282 321 288 277 271 267 267 279 296 298 281 281 284 238 199 187 213
177 177 183 185 192 196 193 199 204 201 108 145 177 190 204 215 196 151 160 157 150 134 125 144 170 149 168 171 182 194 178 129 169 178 184 183 207 196 191 208 192 184 183 158 162 187 152 152 321 38 62 278 218 125 34 23 127 125 168 217 214 104 84 107 176 350 51 253 273 234 247 280 318 278 303 349 332 280 252 257 264 271 276 272 263 230 202 218
176 175 184 187 191 192 186 187 190 180 86 152 200 206 207 216 189 134 151 139 135 142 142 163 165 138 169 180 182 186 175 168 184 187 174 183 235 199 175 192 200 190 192 157 144 201 137 121 315 36 154 289 335 111 80 341 65 126 180 195 117 116 223 111 151 198 151 246 279 277 263 256 214 227 267 305 309 298 237 235 242 256 258 254 263 265 254 239
177 174 181 183 185 183 176 173 166 151 124 181 206 216 207 208 205 172 167 150 144 153 164 185 163 143 179 174 165 177 180 180 180 183 179 184 238 216 172 174 192 189 186 158 163 209 128 138 242 291 231 298 2 111 186 248 354 26 66 111 89 132 174 169 163 167 155 201 262 300 303 255 221 201 190 228 255 248 235 235 230 237 243 241 247 261 264 245
165 183 173 171 175 174 165 158 143 162 194 201 207 214 201 199 214 259 215 167 160 159 171 191 165 153 178 172 163 171 174 171 169 182 204 184 213 240 190 176 172 178 177 165 173 185 111 157 200 293 330 261 193 210 187 177 178 163 146 187 207 89 111 161 173 144 137 158 206 282 290 264 239 191 179 203 233 237 225 218 222 235 244 246 242 243 247 235
92 348 184 165 166 163 153 144 153 192 197 219 220 223 302 173 192 234 248 191 171 166 147 166 166 157 156 161 174 174 152 157 172 183 208 195 199 229 209 178 156 157 156 163 194 191 157 162 157 166 284 203 225 252 204 186 185 175 179 190 184 152 125 148 243 262 125 154 179 172 278 274 245 177 194 204 218 234 214 191 209 236 246 250 247 239 235 228
118 351 272 165 162 157 147 151 183 195 214 222 215 201 200 37 163 227 249 202 174 190 127 150 170 164 155 163 176 170 153 159 182 184 204 211 203 209 207 171 152 157 157 174 204 186 122 109 118 162 217 212 243 276 231 193 177 159 188 187 166 144 123 145 208 246 205 223 196 128 265 275 245 158 183 193 185 191 179 174 193 228 238 234 241 249 245 233
165 205 309 175 164 157 146 165 169 197 234 209 130 95 188 36 294 251 258 207 197 201 164 170 175 172 174 169 164 165 166 171 189 193 206 215 211 218 202 169 156 163 162 174 196 171 103 107 111 121 306 319 305 316 344 21 81 129 211 170 151 171 159 155 178 177 165 219 198 122 244 263 282 92 123 105 111 137 168 177 175 200 233 225 225 239 241 242
193 182 316 205 178 167 156 170 174 201 218 191 166 221 272 31 204 223 256 229 232 188 173 180 178 179 178 155 155 170 177 176 196 203 202 201 220 239 202 177 164 166 174 182 182 177 184 167 126 118 75 352 336 324 314 318 83 186 220 186 175 178 158 138 132 129 208 221 179 161 239 247 268 24 25 26 28 5 274 254 209 223 248 244 232 239 241 243
287 171 199 240 209 196 177 161 176 200 204 188 193 210 211 237 219 171 172 249 320 179 184 211 190 169 151 146 152 171 180 173 173 197 197 194 227 275 194 184 177 177 190 185 167 165 177 177 153 153 178 199 207 215 223 203 161 215 221 186 185 175 163 167 152 172 230 222 165 186 244 252 256 296 342 352 358 331 296 295 303 271 254 253 248 243 242 238
299 190 173 219 246 247 235 222 285 215 195 181 191 209 202 212 254 138 153 223 327 80 193 284 206 156 145 149 148 168 191 191 140 168 187 188 211 284 204 185 185 185 173 151 149 144 134 181 187 182 196 204 201 209 188 138 142 204 210 185 186 187 179 171 144 191 218 211 186 222 240 263 270 261 268 284 273 263 277 286 292 278 263 261 249 236 234 232
268 251 180 167 212 226 218 225 244 269 203 181 186 199 197 201 214 191 163 220 271 52 20 320 213 178 170 162 156 172 195 197 149 157 181 183 196 295 317 165 176 183 152 147 156 129 109 202 206 194 208 213 201 194 168 153 170 197 196 188 192 194 181 178 199 215 207 186 240 240 216 246 265 259 248 259 258 250 255 253 253 256 256 257 252 248 248 245
245 293 177 162 108 197 205 203 195 213 238 201 190 191 196 198 195 196 208 183 40 17 125 212 252 217 184 166 160 163 183 190 183 174 177 164 148 118 38 40 151 203 115 148 171 129 126 206 210 190 215 227 207 176 168 175 185 190 192 192 193 193 186 194 216 222 201 186 237 244 205 216 252 260 250 245 243 236 239 241 245 251 252 256 261 263 259 253
229 300 280 282 140 194 202 174 172 190 210 208 215 203 194 197 197 196 161 114 157 304 155 188 240 226 184 168 167 164 173 181 196 208 174 147 158 146 113 72 304 355 77 134 175 145 143 211 202 178 212 238 223 187 181 187 184 182 198 198 192 196 197 202 217 223 215 213 235 248 241 238 250 261 258 243 228 224 243 258 265 258 249 247 250 253 255 251
200 337 277 257 189 198 191 147 161 185 195 192 214 221 192 198 198 192 157 154 184 217 172 191 225 193 130 142 147 168 198 180 182 199 170 151 177 181 162 183 186 66 72 140 181 223 188 217 180 148 191 252 242 211 190 186 186 193 218 219 210 207 206 212 221 223 222 231 241 249 258 260 255 234 243 254 235 221 259 266 260 254 248 248 248 246 247 244
249 327 1 305 268 198 186 164 164 178 184 184 201 200 196 210 198 183 194 185 167 172 174 182 187 96 81 87 89 113 220 151 146 174 162 157 178 177 179 190 166 153 156 165 168 157 177 214 86 117 167 252 248 216 178 160 169 205 237 233 222 213 214 220 218 210 211 222 236 243 249 258 255 185 224 255 231 217 258 262 258 260 251 245 245 239 237 239
247 300 354 327 288 207 186 175 167 176 188 190 194 190 199 217 200 175 192 215 171 186 177 168 168 121 99 141 138 159 155 114 112 125 112 100 101 97 86 132 148 157 167 168 165 155 163 174 155 144 177 243 248 194 135 119 131 227 241 232 220 214 217 213 204 219 218 211 218 228 233 248 251 183 214 250 234 231 263 259 244 256 252 242 244 241 241 248